Theta_e
317 317 318 315 314 314 317 315 316 316 317 316 315 310 309 309 306 304 304 306 306 306 306 304 304 304 305 307 308 308 307 307 309 310 310 310 309 306 305 303 302 302 301 300 301 300 301 302 303 305 305 306 306 305 305 306 306 307 307 307 308 308 309 310 310 314 317 322 324 320 319 318 320 319
317 317 316 316 313 317 316 316 318 317 317 316 314 312 312 312 307 306 304 304 308 307 307 304 302 303 303 305 307 307 306 306 307 309 308 308 308 304 303 303 301 301 301 300 300 300 300 301 302 303 303 304 305 304 304 304 305 305 306 305 307 309 311 311 311 314 316 318 319 319 318 319 319 319
317 316 316 317 315 318 318 317 317 317 317 315 314 313 313 313 312 310 308 305 306 310 306 304 302 302 303 304 307 307 306 305 307 309 308 306 306 306 304 303 303 302 301 300 299 300 301 301 301 300 302 302 303 303 304 304 304 304 304 303 305 308 309 309 310 313 315 317 317 318 318 319 318 319
316 315 315 315 314 315 314 315 316 315 316 317 313 313 313 312 313 311 308 306 305 309 306 303 301 303 304 303 304 305 304 305 306 307 307 307 307 307 308 303 302 302 301 300 300 300 300 299 299 299 299 299 301 300 301 303 303 302 302 302 303 305 306 307 308 310 313 314 316 316 316 317 317 317
314 313 312 312 313 316 314 314 315 314 313 314 314 313 312 310 311 309 309 306 305 306 306 303 301 303 305 302 303 303 305 306 306 306 307 308 307 307 307 308 302 301 300 299 299 299 299 298 298 298 297 298 299 300 300 300 301 300 299 300 300 302 304 304 305 306 308 310 311 312 313 314 315 316
314 315 312 311 313 314 312 314 310 311 310 309 309 310 310 308 307 309 306 305 304 303 305 302 302 302 304 302 303 304 305 305 306 304 305 305 305 305 306 306 306 300 301 299 299 299 299 298 298 297 297 297 298 298 298 297 297 298 298 298 299 301 301 302 302 302 305 306 308 309 310 311 313 315
312 312 313 312 313 315 313 313 312 312 310 309 308 309 308 307 306 305 306 306 303 302 300 303 301 302 303 303 301 303 304 305 304 303 304 304 304 305 305 305 305 300 300 299 299 299 298 298 297 297 297 297 297 297 298 298 297 297 298 298 298 298 298 298 298 299 301 305 308 308 308 309 311 314
312 313 313 313 314 314 313 312 312 312 312 311 309 309 308 306 304 305 306 306 304 303 301 301 300 302 303 302 303 303 304 304 303 304 304 305 304 305 304 304 304 302 301 300 299 299 299 298 297 297 297 297 297 297 297 297 297 297 298 298 298 297 297 297 297 297 299 302 305 306 306 308 310 314
314 314 314 313 313 313 312 313 311 311 311 309 310 308 307 305 304 305 305 304 305 304 303 302 302 304 302 302 304 303 302 303 304 304 304 303 304 305 306 305 303 301 299 300 299 299 298 297 297 297 297 297 297 296 297 297 298 298 298 298 298 297 297 297 297 297 297 298 300 304 306 306 309 312
315 315 314 315 314 312 313 312 313 312 311 310 310 308 306 305 305 306 305 305 305 304 303 304 302 304 302 303 303 302 303 303 303 303 305 305 305 305 305 305 303 304 304 306 304 301 299 298 297 298 298 297 296 297 297 298 299 299 298 298 297 297 297 297 297 297 296 297 298 299 303 306 307 310
315 314 314 314 315 313 313 313 313 312 313 312 311 310 308 304 305 305 305 304 304 304 303 303 303 303 303 303 302 302 303 303 302 302 302 303 304 305 304 303 303 305 305 302 298 298 298 298 300 299 297 297 298 298 297 298 299 298 298 297 296 296 296 297 297 297 297 298 298 298 298 301 305 307
316 316 315 314 314 313 313 314 314 314 312 311 310 310 307 306 305 305 305 305 304 304 304 303 302 303 303 303 304 303 303 303 303 302 301 300 301 302 303 304 302 303 302 302 302 300 299 299 299 297 298 298 297 298 299 300 300 299 297 296 296 296 297 297 298 298 298 298 298 298 298 298 299 304
316 316 316 316 315 315 312 308 310 310 309 311 309 308 307 305 306 306 305 305 303 304 304 304 305 304 304 303 303 302 301 300 300 302 303 301 302 301 301 302 303 302 300 300 300 300 302 300 301 302 302 303 301 302 299 301 299 298 295 296 296 297 298 298 298 298 299 299 299 298 298 297 297 297
317 316 317 317 313 309 307 303 300 299 299 303 310 308 306 305 306 305 305 304 304 304 303 302 302 302 302 302 303 302 303 303 303 302 302 299 299 300 299 300 303 302 300 299 298 300 302 301 300 301 301 303 303 304 305 303 299 297 295 296 297 297 297 298 298 298 298 298 298 298 298 297 297 296
319 319 317 318 314 309 306 307 297 297 296 296 297 299 300 302 308 306 304 304 304 302 302 301 301 301 301 303 303 302 302 303 302 300 300 299 299 297 295 294 299 305 300 298 297 299 303 301 298 299 301 302 303 303 303 297 297 296 295 295 296 296 297 297 297 297 297 297 297 297 297 297 297 296
319 319 319 319 317 316 315 314 310 301 295 293 293 292 292 291 291 295 306 305 303 303 301 300 301 302 302 302 302 302 302 301 300 301 300 299 298 296 295 295 295 300 301 297 296 297 301 302 300 299 300 301 302 301 299 297 296 296 295 295 295 295 296 296 297 297 296 296 295 295 296 296 295 295
319 319 318 318 316 314 309 310 312 309 301 294 292 292 293 292 291 289 289 293 306 304 302 302 302 302 302 301 302 302 300 300 299 299 298 298 298 297 296 296 296 299 301 297 296 295 298 300 299 298 301 301 302 301 298 296 296 296 295 295 294 294 295 296 296 296 295 295 295 295 295 295 294 294
318 318 317 317 317 315 313 314 312 308 303 301 301 303 303 302 299 293 291 291 292 298 303 303 302 303 301 301 301 301 300 298 297 297 296 298 296 296 296 298 297 299 300 296 296 294 297 299 298 297 300 301 301 301 299 295 296 295 295 295 294 294 294 295 296 296 296 295 295 295 295 295 294 294
315 315 316 315 315 312 311 310 308 306 304 304 304 304 304 304 303 304 304 304 304 303 303 303 303 302 302 301 300 300 300 299 299 298 297 297 297 297 298 298 299 299 300 299 296 292 295 298 297 298 299 300 300 301 298 296 296 296 295 294 294 294 294 295 295 295 295 295 296 295 294 294 294 293
311 312 312 312 311 309 306 298 295 300 305 304 304 303 302 302 301 299 295 292 293 300 302 302 301 301 300 295 299 298 298 299 299 298 298 298 298 296 295 294 297 296 299 299 295 293 294 298 296 297 299 299 298 300 301 296 296 296 295 294 294 294 293 294 295 295 296 296 295 295 295 294 294 293
309 310 310 310 308 306 304 295 292 294 299 305 304 302 301 300 300 298 297 292 290 290 290 289 289 288 288 290 290 290 289 294 296 296 295 295 296 293 292 293 294 295 297 298 298 295 293 297 296 295 297 297 297 298 299 301 297 295 296 295 295 294 293 293 294 295 295 295 295 295 295 294 294 293
305 302 301 305 307 305 302 291 292 293 302 305 304 302 300 299 299 298 298 298 297 289 289 289 288 289 289 289 288 289 290 290 293 295 292 295 294 292 292 291 292 294 295 296 298 295 293 296 296 294 295 296 297 298 299 299 300 297 296 295 294 294 294 295 295 295 295 295 295 296 295 294 294 302
303 301 298 296 300 301 296 290 291 293 301 305 304 302 301 299 299 298 299 298 298 299 299 298 298 296 294 298 298 297 290 290 292 296 296 295 293 292 292 292 292 291 293 296 298 292 293 293 294 293 292 291 295 298 298 299 299 299 299 299 299 295 294 294 295 295 295 295 295 295 294 294 295 303
301 301 299 295 289 289 289 289 289 291 295 303 303 303 302 300 298 298 298 298 298 297 296 297 297 297 297 297 297 297 297 297 296 296 296 296 295 293 292 292 292 290 291 296 298 293 293 294 292 295 293 290 288 294 296 296 298 298 298 297 297 296 295 295 295 295 294 295 295 294 294 294 294 302
301 300 299 298 291 289 289 289 289 290 291 294 302 301 300 299 297 295 298 295 291 297 296 296 295 296 296 296 296 295 296 295 296 296 296 296 296 294 292 291 291 291 293 296 293 294 291 293 292 293 293 292 292 292 294 295 296 296 297 296 296 297 298 299 298 299 296 295 294 294 294 294 293 298
300 299 298 297 291 288 289 289 289 289 290 291 298 295 288 286 289 296 296 297 296 296 295 295 294 294 294 294 295 294 295 295 295 296 295 296 296 295 295 293 291 290 291 295 292 293 291 291 292 291 292 291 291 291 290 292 294 295 296 296 296 297 297 297 297 299 299 300 301 299 300 294 294 293
299 299 298 294 289 288 288 289 289 289 289 291 293 287 287 287 287 291 296 294 295 294 294 294 293 293 294 294 293 293 293 294 295 294 295 295 295 295 295 295 295 293 294 295 295 295 293 291 293 291 290 291 289 290 290 289 291 294 294 294 295 296 297 297 296 297 298 299 300 295 294 293 292 293
299 298 297 294 288 289 288 288 288 288 290 292 287 287 287 287 290 295 295 294 294 292 292 292 293 293 293 293 293 292 293 292 293 292 292 292 293 293 294 294 294 295 294 294 295 294 294 292 292 293 292 290 289 287 287 290 291 291 291 293 293 294 295 296 296 296 297 298 299 300 300 300 301 301
299 293 289 288 288 288 287 287 288 288 287 286 287 287 287 291 295 294 293 293 293 292 292 292 292 292 292 293 293 293 292 291 292 292 292 293 293 293 293 293 293 293 293 293 293 293 293 292 291 292 292 291 289 289 289 288 290 290 290 290 290 292 293 295 296 296 296 297 298 298 298 299 299 300
288 288 288 287 287 289 291 295 295 294 292 287 287 287 290 295 294 293 293 293 292 292 292 291 291 291 292 292 292 292 291 291 291 291 291 290 291 291 291 290 291 293 294 294 293 293 293 292 292 292 291 290 290 289 290 289 288 289 290 289 290 291 293 294 294 296 296 296 297 298 299 299 299 299
292 291 292 292 289 289 287 288 289 289 289 292 293 294 294 294 293 293 293 292 292 291 291 291 291 292 292 292 291 290 290 290 291 292 290 290 289 290 290 289 289 290 293 294 294 294 293 293 293 292 289 289 290 290 290 290 288 288 289 290 290 287 290 293 294 294 295 295 296 297 298 298 298 298
294 292 288 290 294 294 294 294 294 294 294 291 292 293 293 293 292 290 289 289 292 292 292 291 291 290 291 290 290 290 290 290 291 292 291 290 289 290 289 288 288 289 290 292 293 294 291 293 292 292 291 290 288 289 290 289 288 288 288 289 289 290 291 291 292 293 295 295 294 295 296 297 298 298
295 295 294 293 293 292 291 291 290 293 292 291 292 293 293 293 293 292 291 291 291 291 291 291 290 289 290 290 290 290 290 290 291 292 290 291 290 290 290 288 288 288 288 288 290 291 293 293 293 292 292 292 291 290 288 286 287 288 288 288 289 289 290 292 292 293 295 294 293 294 294 296 296 296
293 292 292 292 291 291 291 291 290 290 291 290 290 290 288 290 291 290 290 290 290 290 289 290 289 289 289 289 290 289 289 289 290 291 289 289 290 289 288 287 288 289 288 288 289 290 292 292 292 292 292 292 292 292 290 288 287 289 289 290 289 289 290 292 293 294 294 294 293 292 292 293 295 297
292 291 291 291 291 290 291 290 290 290 290 289 290 290 290 290 289 289 289 290 289 288 288 289 289 290 289 289 289 288 288 289 289 289 290 290 290 289 289 287 287 288 288 288 288 290 290 290 290 288 288 289 289 291 293 292 289 289 290 290 290 290 291 293 293 294 294 294 293 290 290 292 293 296
291 292 291 290 290 290 290 289 289 290 290 289 289 290 289 289 289 289 288 289 289 288 289 289 289 289 289 289 289 289 288 287 288 289 288 289 289 288 288 287 287 287 288 288 289 290 290 289 288 286 285 285 285 284 287 293 292 290 288 288 290 291 292 293 293 293 292 292 292 290 289 289 291 294
291 291 291 291 290 290 289 289 290 290 290 290 289 290 289 289 290 289 290 289 290 288 289 288 289 290 289 289 288 288 288 287 287 288 288 289 288 288 286 287 287 288 288 289 290 290 290 288 288 287 285 283 283 283 285 289 290 292 291 288 289 290 291 291 291 290 291 291 291 291 289 290 290 293
291 291 291 291 291 291 290 290 290 289 290 290 290 290 290 290 291 290 290 289 288 288 289 290 290 290 290 289 288 287 287 288 288 287 287 288 287 286 286 286 287 287 288 288 289 289 289 288 288 287 285 283 283 283 283 287 288 289 292 291 289 289 290 290 288 288 289 291 290 291 291 289 289 291
292 291 291 290 291 291 290 290 290 289 291 290 290 290 289 290 289 288 288 288 288 288 290 290 290 290 288 288 288 287 287 287 287 287 287 287 287 286 286 286 286 287 287 287 288 289 289 288 288 287 286 285 284 284 285 285 285 288 290 291 291 289 289 290 289 289 289 288 289 289 288 287 288 287
291 291 291 292 291 291 291 291 290 290 290 290 291 291 290 288 288 287 287 287 288 288 288 289 289 289 289 289 288 288 287 286 286 287 287 286 286 286 286 286 286 286 286 286 287 288 288 288 289 289 289 288 288 289 288 288 288 289 289 289 290 290 289 290 289 288 288 289 289 287 287 287 287 288
290 291 291 291 291 292 291 290 291 290 291 292 291 289 289 288 287 287 287 287 287 288 289 289 289 288 289 288 288 287 286 286 287 287 286 286 286 286 286 286 286 287 286 286 286 287 287 290 290 287 289 289 289 289 287 285 284 286 288 290 290 288 289 289 290 290 288 289 288 287 287 287 286 286
291 291 289 291 291 291 292 292 292 291 291 291 291 290 288 287 287 286 286 286 287 287 289 289 289 289 289 289 288 287 286 286 286 286 286 286 286 286 286 286 286 286 286 285 286 287 289 291 290 291 290 289 288 286 284 285 285 286 288 289 290 289 288 288 288 289 291 289 288 287 286 286 287 287
290 291 290 290 290 291 291 291 291 291 291 290 290 288 287 287 287 287 288 288 288 289 289 289 290 289 289 289 288 288 287 286 286 286 286 286 286 286 286 286 286 286 286 286 287 288 288 289 290 289 289 288 288 287 285 286 287 287 287 288 288 289 289 288 288 288 288 288 288 288 289 288 286 285
290 290 290 290 290 290 291 291 291 291 290 289 289 288 287 286 286 287 288 288 288 289 289 289 289 289 288 288 288 288 288 287 287 286 286 286 286 286 286 286 286 286 287 287 287 288 289 289 289 288 287 288 289 288 287 286 287 287 288 288 287 287 287 288 288 287 287 287 286 287 287 287 287 287
290 290 291 291 290 290 290 290 290 290 290 289 288 287 286 287 286 287 288 287 287 287 287 289 289 289 288 288 287 287 287 287 287 287 287 287 287 286 286 286 286 286 286 287 287 287 288 288 289 289 288 289 289 288 287 287 287 287 288 287 286 286 286 286 286 286 286 286 286 286 286 286 286 286
Wind_Speed
6 6 7 7 7 6 5 5 5 4 4 4 3 2 3 3 6 6 5 4 3 5 4 2 5 6 6 5 4 5 6 7 7 6 6 6 8 9 11 12 13 13 13 12 11 11 12 12 13 13 12 13 13 12 12 12 12 12 12 13 12 10 8 8 8 10 12 13 12 8 6 7 5 7
5 6 6 6 6 4 5 5 4 4 4 4 5 5 3 2 3 4 4 4 2 3 3 4 4 5 5 4 4 4 5 8 6 6 7 6 6 8 11 11 12 12 12 12 12 12 11 11 11 11 11 12 12 12 11 11 11 11 11 11 11 11 12 10 10 10 11 12 12 10 7 6 6 8
4 5 6 5 5 4 4 4 4 3 4 4 5 5 5 5 5 4 4 5 2 2 3 4 4 4 5 4 4 4 5 6 5 5 5 7 3 2 10 11 10 11 11 11 12 12 12 11 11 10 10 10 10 10 11 11 11 9 9 10 10 11 12 12 12 12 11 11 11 10 8 6 6 7
4 5 5 4 4 3 4 4 4 3 3 3 4 4 5 5 4 3 3 5 5 2 3 3 3 4 4 5 4 5 4 4 5 5 5 5 2 4 5 11 9 8 9 10 11 12 11 12 12 12 11 10 10 10 10 10 11 10 9 10 9 10 11 10 11 12 12 12 12 12 9 7 5 5
4 5 6 5 4 3 4 4 4 4 5 4 4 4 4 5 3 3 4 5 6 4 2 2 3 3 2 5 5 5 4 4 3 4 5 5 5 5 4 4 10 7 7 8 9 9 10 11 12 12 12 11 10 10 10 10 10 10 11 10 10 10 10 10 10 10 11 12 12 13 12 11 8 7
2 4 5 6 5 3 5 5 6 6 5 5 5 4 4 4 4 2 3 4 4 5 3 3 2 3 2 3 4 4 4 4 3 4 3 3 5 5 5 4 5 7 4 6 7 7 8 9 10 11 11 11 10 10 9 10 10 10 10 10 10 10 11 11 10 11 10 9 10 10 11 12 12 10
3 3 4 4 3 2 5 5 4 5 5 4 5 5 4 5 4 3 3 3 4 4 4 2 2 2 2 2 3 3 2 2 3 4 3 3 4 4 5 5 2 8 5 4 5 7 7 7 8 9 10 10 10 10 10 10 10 10 10 9 10 10 11 11 9 9 11 10 9 9 10 11 12 13
4 3 3 3 4 4 5 5 5 4 4 4 5 5 5 5 5 4 3 3 4 3 4 3 1 2 1 1 2 2 0 1 2 3 2 2 3 4 5 5 4 4 2 3 4 6 7 7 8 9 9 10 10 10 10 10 11 10 10 10 10 11 11 12 11 9 11 13 11 9 9 10 11 13
4 4 4 4 4 4 4 4 4 4 5 5 5 5 5 5 4 3 3 4 4 4 4 4 2 1 1 1 1 3 4 3 2 3 3 3 3 4 4 4 4 1 8 7 5 4 7 5 8 9 10 10 10 10 10 10 10 11 11 11 11 11 11 12 12 11 10 11 11 11 10 10 11 12
3 3 4 4 5 5 5 4 4 5 6 5 5 5 4 4 4 4 3 2 3 3 3 2 3 2 1 0 2 4 4 4 4 5 5 2 2 4 5 5 4 3 3 4 5 4 6 7 8 7 9 10 10 10 10 10 10 10 10 11 12 12 12 12 12 11 10 10 11 11 10 11 12 12
3 3 3 1 1 2 3 4 6 6 6 5 5 4 4 3 4 3 3 3 3 3 2 2 1 1 2 1 2 3 3 2 3 6 7 5 4 4 6 6 4 2 4 4 6 6 7 9 8 7 9 9 8 9 10 10 9 9 9 11 11 12 11 11 12 13 11 10 11 11 10 10 11 12
6 7 6 7 7 10 10 10 8 7 6 4 5 5 4 4 4 3 3 2 2 2 1 1 1 0 1 1 0 1 1 3 2 4 5 8 9 9 7 5 5 4 5 6 7 4 4 6 5 8 9 7 4 8 8 6 6 7 11 11 10 10 10 10 9 9 10 11 11 10 10 10 10 11
8 8 8 8 9 9 11 12 8 8 7 6 6 5 6 6 5 4 3 2 1 1 0 0 0 2 2 2 3 3 3 4 5 4 4 6 6 8 9 7 3 3 6 7 7 6 4 6 6 5 5 5 8 4 6 4 3 9 9 10 10 9 8 9 9 10 10 11 11 11 10 9 9 9
7 8 8 8 10 8 10 10 9 7 7 7 4 7 6 7 5 4 3 2 0 1 1 2 3 4 4 3 3 3 2 2 3 4 5 7 7 7 7 6 2 3 6 9 9 7 4 5 6 5 5 4 5 5 5 5 8 8 7 8 10 10 11 10 9 9 9 10 10 10 10 9 8 8
6 7 8 7 7 8 8 7 9 10 8 6 3 8 4 1 3 5 3 2 1 0 1 1 1 2 4 3 2 3 3 3 4 5 5 5 6 7 8 9 6 2 8 9 10 9 5 4 6 6 5 4 5 5 5 9 10 8 7 8 10 11 11 11 10 9 8 8 8 9 9 9 8 7
5 5 4 4 3 4 5 6 8 6 6 5 8 9 8 6 8 7 2 3 2 2 2 1 2 3 3 4 3 3 4 4 5 5 5 5 5 7 7 7 8 6 6 9 10 10 6 4 6 6 5 5 5 5 8 11 8 7 7 8 9 11 11 10 9 8 8 7 7 8 8 8 8 7
5 4 3 2 2 2 6 5 6 8 7 8 11 12 11 9 9 8 9 9 2 2 2 2 2 2 3 4 2 2 3 4 6 6 6 6 6 6 7 7 8 8 6 7 8 10 9 6 5 7 6 5 5 6 6 6 11 9 8 7 8 11 12 11 9 7 7 7 7 7 8 7 8 7
4 3 3 3 1 2 3 3 5 8 9 10 9 7 6 5 6 7 8 6 6 3 1 2 3 1 1 2 2 2 2 4 6 6 7 7 8 8 8 10 11 10 6 6 7 9 8 6 7 8 7 6 6 7 6 7 11 9 7 7 8 10 12 12 10 8 7 8 7 7 6 7 7 7
1 2 2 2 1 1 2 3 6 9 9 8 7 7 6 5 5 5 4 3 3 2 2 1 2 2 1 1 1 2 2 3 4 5 7 8 8 9 10 10 9 7 4 4 5 10 9 8 8 8 8 8 8 7 8 8 9 8 7 6 7 8 11 12 11 9 8 8 8 8 6 6 6 6
2 1 0 1 2 3 3 6 8 9 9 9 8 7 6 6 5 5 5 6 7 6 4 3 2 2 3 5 3 4 4 4 4 5 5 6 7 8 8 8 7 7 4 3 6 9 9 7 8 8 8 9 9 8 8 9 7 3 5 7 8 8 8 10 11 10 9 8 8 8 8 7 7 7
4 3 2 3 4 5 6 6 9 10 9 7 7 6 6 5 4 4 3 5 6 6 7 6 6 5 3 2 2 3 3 4 5 5 7 7 6 8 9 9 8 7 5 6 7 9 9 7 8 10 8 9 10 10 8 7 3 2 7 9 9 8 8 8 10 10 9 9 9 9 8 7 7 8
5 7 9 5 6 7 6 7 8 7 7 6 6 6 6 5 4 3 3 2 3 3 2 1 0 1 1 2 4 6 5 4 5 5 8 8 7 8 8 10 8 8 8 7 6 9 9 8 8 10 10 10 9 7 6 6 5 8 10 9 8 9 9 10 11 11 11 10 9 10 9 7 7 6
6 6 8 11 9 8 8 9 8 5 4 6 5 5 5 4 4 3 2 1 2 2 2 2 2 4 6 4 3 2 6 6 8 6 7 7 7 8 8 9 9 9 5 2 5 9 9 10 9 9 10 10 7 6 5 6 7 8 9 10 10 9 9 13 14 14 13 11 10 10 10 7 6 6
6 7 7 8 10 11 11 10 9 8 6 6 5 3 2 3 4 3 2 2 1 0 1 2 2 3 4 4 4 5 5 5 6 7 7 7 7 8 9 9 9 10 9 8 10 11 11 11 12 10 11 12 10 7 9 10 11 11 10 10 10 12 10 12 12 13 11 10 10 10 10 9 6 6
7 6 6 6 8 11 12 12 11 11 10 7 5 3 3 4 5 2 2 3 3 1 2 3 4 4 4 4 5 5 5 5 5 6 6 7 7 9 10 10 11 12 11 10 5 10 11 11 12 11 12 11 13 13 11 12 11 10 10 10 11 10 10 10 10 9 10 11 13 12 10 10 9 6
6 6 6 6 7 11 12 12 12 11 10 9 7 7 8 7 3 2 2 0 1 2 3 4 5 5 5 5 5 5 5 5 5 5 7 8 9 9 10 11 12 13 12 10 6 11 12 12 11 12 12 12 13 12 13 12 12 11 10 9 9 10 10 10 10 11 10 9 8 8 7 10 9 10
7 6 7 7 8 11 11 12 11 11 11 9 7 8 8 7 4 2 1 1 2 3 4 4 5 5 5 5 6 6 5 5 6 8 9 10 10 10 10 11 11 12 13 12 12 12 13 13 12 12 13 12 14 13 13 12 11 9 10 10 10 10 10 10 11 11 10 10 9 8 4 9 11 11
7 8 8 8 11 12 12 11 11 10 9 8 9 8 7 5 2 1 1 2 3 4 4 5 5 5 5 5 5 6 7 8 9 9 9 9 9 10 10 10 11 12 13 13 13 12 13 13 13 12 13 13 13 13 14 12 12 11 12 11 11 11 10 10 11 11 11 10 9 9 10 9 7 7
6 10 13 14 13 13 13 14 13 11 10 9 8 7 3 2 2 3 3 3 4 4 4 5 5 5 5 6 8 8 8 9 9 9 8 8 9 9 10 11 11 11 10 10 11 11 11 11 12 11 11 11 12 13 13 14 12 12 11 12 12 10 10 10 10 10 10 10 10 9 9 9 9 8
15 14 14 14 14 12 9 7 6 6 6 7 7 4 1 2 2 2 3 3 3 4 4 5 6 7 8 8 8 8 8 8 8 8 8 8 9 8 9 10 10 10 10 10 11 10 10 11 11 11 11 11 12 13 13 13 13 12 12 12 12 12 11 11 10 10 10 10 9 9 8 7 8 8
10 10 8 8 10 10 11 10 8 8 6 4 3 2 2 2 1 1 2 3 3 4 4 5 7 8 8 8 8 8 8 8 8 8 9 8 9 9 9 10 11 10 10 10 9 9 10 10 11 11 12 12 12 12 12 12 13 13 12 11 11 11 9 10 10 10 10 9 10 10 10 9 9 7
9 9 10 11 8 7 6 5 4 3 3 2 1 1 1 1 1 0 2 5 3 3 3 5 7 7 8 8 8 8 8 8 9 8 9 9 9 9 9 9 10 10 10 9 9 9 9 9 10 10 11 11 12 12 11 12 12 12 12 12 11 11 10 11 10 11 11 10 10 11 11 9 7 5
9 8 7 4 5 4 3 2 2 2 1 1 2 2 1 1 1 1 2 3 3 3 4 5 7 7 8 8 8 8 8 9 9 9 9 9 9 9 8 9 10 10 11 10 10 9 9 9 9 9 10 10 12 12 12 12 12 11 12 11 11 11 10 10 10 11 12 12 11 11 11 7 6 7
7 5 4 4 3 3 2 2 2 1 1 1 0 1 1 1 1 3 3 3 4 4 4 5 5 6 6 7 8 8 9 9 9 9 9 9 9 9 9 9 10 10 10 11 11 10 9 9 8 8 9 11 11 12 12 12 13 12 11 11 11 11 10 9 10 10 10 10 10 10 10 11 8 6
5 5 4 3 3 2 2 1 1 1 1 0 0 0 0 0 1 1 3 3 3 3 4 4 5 6 7 7 7 8 9 9 10 9 8 8 9 9 9 10 10 10 10 11 11 10 9 9 8 9 9 9 9 10 12 13 12 12 11 10 9 9 9 8 8 8 8 8 7 8 9 10 10 8
5 4 4 3 3 2 2 2 1 1 0 0 0 1 1 2 2 2 3 4 5 4 4 5 5 7 7 7 7 8 8 8 9 9 9 8 8 9 9 10 10 11 10 10 11 10 9 9 8 9 9 9 9 10 8 12 14 10 10 8 8 9 9 8 8 7 7 8 7 7 8 9 9 7
5 4 3 3 3 2 2 2 1 1 1 0 0 1 2 2 3 3 4 4 4 4 4 5 6 7 7 7 7 7 8 8 9 9 9 9 8 9 9 9 10 10 11 10 10 10 9 9 9 8 8 9 9 10 10 4 9 13 9 8 8 7 7 8 8 8 7 7 6 6 7 7 7 5
4 3 3 4 4 3 2 2 1 1 0 0 1 1 2 4 4 5 5 5 4 4 4 5 6 7 7 6 7 8 8 8 9 10 9 9 9 8 9 9 10 10 11 10 10 10 9 9 9 9 8 8 9 10 10 6 4 4 8 8 8 7 6 7 8 8 7 6 7 6 5 6 6 4
5 4 4 3 4 3 2 2 1 1 0 0 1 2 2 4 4 4 4 4 4 4 4 5 7 7 7 7 7 8 9 9 9 9 9 9 9 9 10 10 10 10 10 11 10 9 9 9 9 9 8 8 8 8 8 9 8 5 3 7 8 9 9 8 9 8 7 6 5 2 1 1 3 4
5 5 4 4 4 3 3 3 1 0 0 0 1 3 4 4 4 4 4 4 4 4 4 4 5 6 7 7 7 8 9 9 9 9 9 9 9 9 9 9 10 11 11 11 10 9 9 9 8 8 8 9 9 8 9 9 9 7 7 9 14 12 8 6 7 7 7 6 4 3 2 1 1 0
5 4 4 4 4 3 2 2 2 0 1 2 2 2 3 4 4 3 4 4 4 4 4 5 7 7 7 8 8 8 9 9 9 9 9 9 9 9 10 11 10 10 10 11 10 10 10 9 8 7 6 7 7 5 6 6 7 5 5 3 3 2 5 7 8 7 6 3 2 3 2 1 1 1
4 3 3 4 4 3 3 2 1 0 1 1 2 2 3 3 4 6 6 4 4 4 4 6 7 7 8 8 8 8 9 9 9 9 9 9 9 9 10 9 10 10 9 10 10 11 10 10 8 8 6 6 4 4 6 7 7 6 4 4 1 3 3 7 8 11 8 4 3 2 1 1 1 2
5 3 3 3 2 3 2 1 0 0 1 1 2 3 3 4 3 3 3 3 3 3 4 5 7 7 8 8 8 8 9 9 9 9 10 9 9 9 9 9 9 9 10 10 10 10 10 8 7 6 5 5 4 4 6 6 6 5 5 3 2 2 1 7 10 7 6 7 7 3 1 1 1 1
4 4 3 3 2 3 1 1 0 0 1 2 2 3 3 3 3 3 3 3 3 4 4 5 7 8 8 8 9 8 8 8 9 9 9 9 9 9 9 10 10 10 9 9 9 9 8 8 6 4 4 5 4 4 5 5 5 3 3 2 2 1 2 2 2 5 7 10 12 8 5 4 1 2
4 3 3 3 3 2 1 0 0 0 1 2 2 3 3 3 3 3 2 2 3 4 5 6 8 8 8 8 9 9 9 10 9 9 9 9 9 9 9 9 9 9 9 9 9 9 7 7 5 3 4 4 3 4 4 3 4 3 3 1 0 1 2 2 2 4 4 4 9 9 8 9 11 13
Wind_Direction
117 115 112 110 113 106 99 98 97 93 87 89 104 152 160 154 146 156 134 96 107 82 29 50 67 46 53 45 42 47 45 18 359 59 59 58 60 41 44 41 43 39 38 37 37 34 32 30 27 24 22 23 21 16 15 13 11 10 8 11 7 349 329 315 299 304 297 295 293 303 290 287 267 256
112 116 115 116 114 113 111 107 106 105 95 88 83 81 84 120 133 135 132 108 62 96 89 42 55 52 49 58 54 51 57 22 17 48 58 55 53 66 48 45 43 42 38 35 32 30 28 26 21 17 17 15 13 10 7 8 7 5 7 8 6 3 358 341 327 310 300 294 295 295 288 267 258 246
107 113 111 111 111 113 108 112 105 100 103 99 97 87 75 75 86 102 120 130 93 355 74 70 50 49 44 47 63 60 54 27 18 59 55 56 20 59 64 46 42 39 38 34 31 26 23 20 16 13 9 7 7 4 357 357 358 356 2 6 3 1 358 354 340 327 312 302 296 288 283 272 251 240
108 112 110 103 107 112 122 118 115 112 97 97 104 100 95 90 82 85 80 86 111 81 52 70 77 57 50 34 50 62 53 66 19 55 57 50 15 44 82 79 43 39 35 32 26 24 18 11 9 6 5 3 0 2 358 356 354 354 353 357 358 353 356 352 345 337 327 316 305 304 303 295 275 252
133 128 125 122 120 126 120 121 128 125 124 118 110 108 110 106 96 83 92 105 118 123 91 68 71 53 346 60 33 53 53 36 50 51 47 38 37 36 30 82 78 38 35 30 25 21 14 8 2 358 355 354 353 355 355 351 350 349 346 345 347 345 347 347 345 339 331 321 312 308 309 305 286 265
139 142 142 142 146 152 135 140 138 138 143 138 132 125 117 110 99 65 93 93 106 122 152 130 118 96 4 81 52 50 33 37 14 38 42 48 34 31 16 13 79 65 28 20 24 11 7 3 356 351 346 343 341 342 344 345 344 343 339 338 338 339 338 335 336 340 331 315 307 305 301 299 297 285
150 161 155 152 150 153 149 150 137 147 148 144 125 121 116 110 106 100 96 117 110 125 119 143 129 100 84 39 48 48 58 21 12 19 32 23 34 28 15 14 8 74 2 13 4 360 353 350 347 340 336 333 332 331 332 337 339 335 335 334 335 335 333 329 327 330 327 322 312 305 300 298 293 285
180 189 183 171 168 171 163 159 155 162 151 146 134 135 127 126 124 118 122 103 112 128 134 143 112 100 84 128 57 22 331 25 6 12 8 18 23 14 11 8 359 68 350 313 329 338 330 326 336 329 323 324 324 323 323 328 332 332 330 331 332 332 331 328 325 326 328 322 316 303 291 286 282 279
206 203 213 191 187 190 175 168 174 166 168 155 153 152 146 141 136 142 133 124 128 131 125 140 143 166 139 70 58 27 4 1 352 346 343 351 2 11 3 347 356 267 201 219 235 303 297 303 332 317 317 319 319 317 317 321 325 327 327 329 331 329 327 325 323 322 322 315 306 302 296 287 277 273
224 240 239 209 197 201 202 190 182 179 179 171 169 160 156 140 139 127 118 111 102 96 101 123 143 150 40 59 54 27 7 357 353 356 352 315 335 351 350 351 344 342 344 335 335 312 305 343 315 306 314 307 308 315 315 313 315 320 325 329 331 329 328 327 324 320 317 312 303 296 291 287 283 271
222 219 241 265 345 312 280 224 196 200 191 182 176 158 147 145 140 139 127 120 116 102 116 113 59 123 130 25 15 34 350 342 5 359 345 345 353 346 344 337 348 344 325 307 225 256 285 287 288 309 286 283 282 301 307 302 305 318 332 338 336 336 333 332 329 323 317 305 299 299 291 283 280 276
212 214 213 205 188 197 216 231 213 196 190 179 173 161 154 150 156 144 139 140 117 111 95 41 84 75 7 157 350 300 328 354 0 19 349 336 338 339 337 329 330 348 332 327 329 293 265 294 272 252 252 227 281 284 285 295 303 336 349 345 340 335 331 324 318 312 307 302 301 302 297 286 278 276
218 226 219 214 216 208 215 222 226 203 185 177 178 166 165 166 170 160 151 136 111 115 339 92 63 335 334 19 354 348 353 357 346 338 334 321 329 327 326 335 354 353 336 331 324 321 325 325 328 326 327 349 330 314 279 276 355 358 350 341 331 316 311 318 318 313 311 308 307 303 297 289 283 279
217 222 221 222 220 206 202 209 220 224 207 208 196 165 176 175 170 160 157 158 129 340 334 9 354 333 332 345 348 333 343 329 316 323 331 327 330 324 322 317 0 352 344 336 327 324 326 323 319 320 324 333 320 326 314 4 342 330 332 330 320 313 319 318 320 322 324 322 315 307 301 295 289 284
237 220 221 227 202 208 206 202 209 203 200 210 190 160 151 35 167 164 151 145 142 261 315 119 276 299 308 317 323 314 326 315 326 324 321 317 323 330 330 323 324 66 360 337 321 317 331 319 319 321 313 320 318 320 324 343 317 316 320 316 314 312 313 314 316 323 330 331 325 319 316 313 309 304
256 248 225 213 198 213 206 189 187 188 160 140 119 104 90 83 52 32 48 150 175 206 240 232 243 290 296 308 300 318 325 328 321 316 311 312 321 320 315 308 306 331 1 329 315 306 314 309 309 307 305 305 306 314 305 294 297 308 306 304 309 309 306 305 309 318 328 330 329 324 323 324 323 320
264 273 267 240 194 183 160 195 179 156 132 117 115 110 99 71 63 65 54 37 23 188 224 257 264 267 314 292 309 14 339 327 304 310 310 321 315 309 298 299 308 311 332 310 303 304 308 302 298 303 302 298 302 294 262 303 307 306 292 288 298 303 303 301 303 311 320 324 323 323 319 316 315 311
267 267 279 282 236 144 169 174 159 147 141 139 135 131 119 106 93 78 74 78 52 19 316 293 296 84 288 310 360 6 322 305 310 316 312 319 312 306 300 303 293 292 288 287 305 295 297 308 305 296 297 302 298 288 295 283 282 287 281 279 292 300 302 299 298 304 312 316 319 322 324 320 314 306
301 302 293 286 311 107 145 144 152 143 142 133 124 117 108 103 93 84 82 67 80 86 64 56 59 88 106 1 334 315 302 289 297 308 304 303 297 292 288 279 270 276 256 256 286 290 301 302 292 290 300 302 294 291 286 251 261 273 274 270 275 290 295 297 294 296 299 303 307 310 313 311 311 311
46 34 33 129 105 101 107 105 128 131 131 130 127 120 118 112 96 77 53 31 27 31 36 51 46 55 45 15 354 354 334 309 298 285 274 271 269 278 290 293 298 290 292 249 281 290 294 302 292 295 302 299 294 295 289 287 251 248 265 263 266 276 287 289 289 289 291 290 293 295 299 298 299 298
59 52 73 107 109 108 100 107 119 122 130 128 128 126 121 114 115 110 101 62 49 45 51 56 42 29 28 325 329 301 287 294 313 297 290 289 307 301 298 297 297 295 304 289 287 287 289 296 302 301 299 298 297 293 287 288 167 182 257 256 257 274 279 278 278 282 286 287 284 288 288 286 295 294
73 58 42 74 105 100 103 112 114 124 130 129 127 128 130 136 134 127 129 139 104 104 107 118 59 145 66 259 243 240 240 221 249 290 290 306 305 292 291 293 299 299 295 286 305 296 290 304 303 302 301 295 281 279 288 294 276 230 238 256 284 292 286 286 282 281 285 281 275 272 274 280 291 276
93 82 52 45 66 89 102 106 112 126 128 127 136 139 143 147 143 122 136 140 168 161 182 182 180 190 192 218 267 229 188 215 227 254 274 287 284 287 290 292 295 294 284 317 322 297 298 305 302 304 306 300 298 284 282 284 293 298 297 294 287 282 280 286 286 280 275 271 264 260 260 266 266 283
102 94 89 70 74 89 89 87 84 76 79 117 128 148 157 154 133 124 124 54 353 124 312 303 283 285 291 282 268 273 273 261 267 266 270 274 276 278 282 285 286 283 287 293 309 296 293 296 293 297 295 297 296 296 299 292 293 298 301 296 292 295 279 259 254 249 247 248 247 244 250 250 247 278
121 111 96 94 81 90 88 86 82 76 61 59 94 84 89 62 74 108 148 131 245 306 310 293 286 289 288 286 283 282 280 281 280 275 267 268 271 278 280 284 285 283 285 297 351 281 287 291 292 293 286 282 284 291 291 294 294 293 295 295 294 291 293 292 296 291 286 245 228 231 233 236 227 242
115 113 115 110 95 93 92 90 86 80 73 63 80 72 81 88 97 123 93 24 308 296 294 302 299 296 298 298 299 296 293 292 292 294 292 283 281 277 276 278 282 283 283 292 298 280 280 281 280 286 285 286 286 287 293 292 294 295 292 294 294 292 291 290 287 288 283 284 274 225 211 201 221 222
122 117 113 107 101 97 97 96 96 96 98 91 95 109 108 105 130 200 62 359 298 312 307 304 302 303 302 307 307 309 308 308 303 300 300 298 291 284 278 274 272 275 281 284 280 275 271 273 276 277 282 284 287 289 285 288 290 294 290 288 289 289 287 284 284 282 281 281 273 273 214 205 216 224
129 134 130 122 116 107 103 97 90 81 81 97 104 102 105 123 146 13 353 319 333 311 306 305 310 312 319 312 310 313 314 310 305 299 294 288 284 282 282 281 279 277 282 283 284 279 276 276 278 276 276 280 281 283 286 286 284 285 288 290 289 288 286 284 280 281 279 273 274 270 274 266 229 209
113 100 112 122 119 114 109 110 108 96 89 91 93 93 110 229 11 5 348 335 327 318 318 322 317 315 315 315 313 310 303 299 294 287 284 283 286 286 285 283 280 278 276 275 276 276 276 276 277 277 275 274 275 277 280 282 287 288 288 290 288 287 288 285 280 281 281 280 281 278 277 274 270 263
112 118 118 115 119 122 129 128 106 101 95 86 88 85 352 25 22 353 346 334 326 323 323 314 311 311 313 311 311 304 294 291 293 297 296 298 296 295 294 293 288 284 282 280 280 278 276 273 271 273 274 271 270 275 278 283 284 285 285 282 285 288 279 275 274 272 271 270 269 275 273 289 295 304
119 122 119 99 86 87 78 83 93 108 137 144 144 108 55 44 26 22 353 349 320 314 312 311 310 316 311 305 296 293 297 296 296 297 297 294 292 294 294 294 292 292 290 289 285 282 280 278 277 276 276 276 276 272 277 279 281 281 280 279 281 278 282 286 287 283 283 282 282 280 284 284 289 284
124 119 114 120 124 124 124 129 131 117 97 91 86 62 73 64 70 50 222 242 267 283 300 304 312 303 301 300 301 300 295 297 298 300 296 293 292 292 294 292 291 296 296 294 291 284 275 273 275 272 269 273 276 279 279 278 278 280 281 280 277 276 274 274 276 278 276 278 282 279 275 279 277 257
130 134 134 129 134 137 134 140 137 127 120 91 97 95 12 43 344 323 337 333 325 317 303 304 320 311 307 305 306 303 302 301 302 301 297 294 292 294 292 289 291 296 298 298 296 291 285 278 268 266 269 269 267 270 276 277 271 270 274 277 278 276 279 275 275 278 282 278 273 276 279 272 264 264
136 142 140 143 144 149 159 153 143 138 133 131 128 111 97 283 350 338 320 315 318 313 298 291 311 315 309 306 307 307 305 304 301 302 297 292 292 291 291 293 292 293 293 292 293 294 293 289 286 278 273 269 267 264 261 262 269 271 271 275 274 276 274 276 273 275 277 277 283 283 281 280 265 250
138 147 149 144 147 149 151 147 129 123 138 128 113 52 345 332 321 315 308 326 317 301 295 289 291 312 314 308 308 306 306 305 304 303 299 294 293 292 294 294 294 295 295 294 294 296 298 296 294 290 284 280 277 268 246 245 262 264 276 276 280 275 277 273 283 286 290 291 286 278 278 275 275 283
146 153 152 155 152 151 153 138 129 133 121 111 342 345 339 346 349 331 329 333 307 301 296 297 311 317 316 313 310 308 307 306 302 301 301 298 296 296 295 291 290 292 293 293 294 295 294 291 289 286 287 289 287 285 282 217 219 254 264 275 278 282 283 296 309 308 298 290 285 274 268 273 283 287
146 151 154 152 152 160 150 142 149 145 137 63 4 354 344 337 340 330 329 301 289 290 290 293 311 321 321 318 315 312 310 306 304 303 299 299 299 297 295 293 293 296 296 294 295 293 289 285 281 278 280 283 281 281 280 308 223 218 252 268 279 283 302 308 302 294 288 281 279 274 273 276 275 282
151 152 157 156 159 155 140 146 150 169 152 40 356 343 334 334 331 327 319 307 303 297 294 311 324 325 325 326 320 316 310 304 303 302 303 302 300 299 297 296 297 295 294 294 291 287 284 280 277 273 269 270 281 283 293 295 302 240 221 259 273 287 291 290 286 286 292 290 284 290 294 269 270 285
149 155 157 159 152 151 153 162 162 147 83 10 350 344 340 333 331 321 316 306 300 298 296 314 326 332 326 320 318 309 301 300 299 299 302 303 302 301 299 298 295 294 295 293 291 290 288 280 270 264 256 256 260 278 292 296 286 292 237 214 271 278 276 278 280 283 283 283 286 290 301 26 58 73
143 154 157 152 149 151 158 158 159 143 48 339 339 351 340 327 322 316 309 305 307 297 292 308 319 324 323 322 314 303 296 292 292 295 299 300 298 294 293 294 293 294 294 294 295 297 294 289 283 274 274 272 280 283 286 285 285 279 272 258 238 242 261 273 274 277 277 270 273 261 254 202 203 110
150 157 154 148 145 153 157 160 149 121 344 345 337 331 322 323 304 302 307 309 311 307 323 330 330 319 317 315 308 302 297 295 295 297 298 298 294 292 291 292 291 293 296 296 296 295 292 292 297 292 271 281 278 281 272 265 268 276 276 284 115 217 269 269 262 259 259 271 236 244 247 245 214 170
158 155 147 152 153 154 152 142 132 20 348 338 327 325 320 303 292 276 277 263 269 282 310 332 329 323 319 312 308 303 298 296 298 299 300 299 299 296 295 297 298 299 297 293 293 291 292 293 293 289 285 276 262 252 263 269 283 294 302 306 269 144 30 342 283 252 248 238 221 219 184 199 229 226
156 153 152 156 153 152 146 147 135 358 339 332 322 320 308 299 302 299 312 318 315 319 324 327 331 327 320 314 311 307 303 301 302 302 301 298 297 297 298 297 294 293 289 288 288 290 290 290 287 285 276 261 261 256 270 284 288 292 299 298 324 324 40 35 32 59 73 48 24 355 310 297 248 260
155 153 157 159 158 153 148 141 20 3 322 322 317 304 298 307 311 312 314 324 324 321 318 312 327 326 320 316 314 311 308 308 308 304 301 300 299 297 296 294 293 292 291 289 292 293 294 293 288 280 267 265 268 266 271 282 285 300 307 324 331 347 23 39 59 56 58 43 21 1 12 22 14 2
155 160 160 161 157 157 157 164 244 344 324 316 306 306 304 302 315 315 314 312 313 311 307 321 325 322 319 317 316 314 312 308 303 306 306 305 303 301 297 297 298 298 296 297 298 299 302 301 298 277 261 265 270 266 273 272 288 301 301 320 3 54 39 38 58 62 53 46 17 21 55 71 81 92